Chicago Lansing, IL

9:51 PM CDT on August 20, 2017 (GMT -0500)
Lansing Municipal

Weather History for KIGQ - November, 2013

Change the Weather History Date:

Sunday, November 3, 2013

  Actual Average (KGYY) Record (KGYY)
Temperature  
Mean Temperature 41 °F -  
Max Temperature 52 °F 54 °F 77 °F (1961)
Min Temperature 30 °F 41 °F 12 °F (1951)
Degree Days  
Heating Degree Days 24    
Moisture  
Dew Point 34 °F    
Average Humidity 76    
Maximum Humidity 97    
Minimum Humidity 48    
Precipitation  
Precipitation 0.00 in - - ()
Sea Level Pressure  
Sea Level Pressure 30.25 in    
Wind  
Wind Speed 5 mph (SE)    
Max Wind Speed 12 mph    
Max Gust Speed 16 mph    
Visibility 9 miles    
Events      
Averages and records for this station are not official NWS values.
T = Trace of Precipitation, MM = Missing Value Source: NWS Daily Summary

Daily Weather History Graph

Daily Weather History Graph

Search for Another Location

Airport or City:

Trip Planner

Search our weather history database for the weather conditions in past years. The results will help you decide how hot, cold, wet, or windy it might be!

Date:

Astronomy

Nov. 03, 2013 Rise Set
Actual Time 6:24 AM CST 4:42 PM CST
Civil Twilight 5:55 AM CST 5:11 PM CST
Nautical Twilight 5:22 AM CST 5:43 PM CST
Astronomical Twilight 4:50 AM CST 6:16 PM CST
Moon 6:28 AM CST (11/3) 4:56 PM CST (11/3)
Length of Visible Light 11h 15m
Length of Day
10h 17m
New Moon, 0% of the Moon is Illuminated
Nov 3
New Moon
Nov 9
First Quarter
Nov 17
Full
Nov 25
Last Quarter
Dec 2
New

Hourly Weather History & Observations

Time (CST) Temp. Windchill Dew Point Humidity Pressure Visibility Wind Dir Wind Speed Gust Speed Precip Events Conditions
12:15 AM 41.0 °F 39.0 °F 35.6 °F 81% 30.14 in 10.0 mi NW 3.5 mph - N/A   Overcast
12:35 AM 40.6 °F 37.5 °F 35.6 °F 82% 30.14 in 10.0 mi WNW 4.6 mph - N/A   Overcast
12:55 AM 39.9 °F 36.7 °F 35.2 °F 83% 30.14 in 10.0 mi NW 4.6 mph - N/A   Mostly Cloudy
1:15 AM 39.0 °F 36.8 °F 34.9 °F 85% 30.15 in 10.0 mi WNW 3.5 mph - N/A   Scattered Clouds
1:35 AM 38.8 °F 34.6 °F 35.2 °F 87% 30.16 in 10.0 mi NW 5.8 mph - N/A   Clear
1:55 AM 38.7 °F 34.3 °F 35.1 °F 87% 30.16 in 10.0 mi WNW 5.8 mph - N/A   Clear
1:15 AM 38.8 °F 34.6 °F 35.6 °F 88% 30.17 in 10.0 mi NW 5.8 mph - N/A   Clear
1:35 AM 38.3 °F 33.9 °F 35.1 °F 88% 30.18 in 10.0 mi NW 5.8 mph - N/A   Clear
1:55 AM 38.3 °F 33.9 °F 35.2 °F 89% 30.18 in 10.0 mi NW 5.8 mph - N/A   Clear
2:15 AM 37.8 °F 33.3 °F 35.1 °F 90% 30.19 in 10.0 mi NW 5.8 mph - N/A   Clear
2:35 AM 37.8 °F 32.5 °F 35.2 °F 91% 30.19 in 10.0 mi NW 6.9 mph - N/A   Clear
2:55 AM 37.2 °F 32.6 °F 34.7 °F 91% 30.20 in 10.0 mi NW 5.8 mph - N/A   Clear
3:15 AM 36.7 °F 32.9 °F 34.5 °F 92% 30.20 in 10.0 mi NW 4.6 mph - N/A   Clear
3:35 AM 36.3 °F 33.7 °F 34.2 °F 92% 30.21 in 10.0 mi NW 3.5 mph - N/A   Clear
3:55 AM 36.1 °F - 34.2 °F 93% 30.21 in 10.0 mi Calm Calm - N/A   Clear
4:15 AM 35.6 °F - 33.8 °F 93% 30.22 in 10.0 mi Calm Calm - N/A   Clear
4:35 AM 33.8 °F - 32.2 °F 94% 30.23 in 7.0 mi Calm Calm - N/A   Clear
4:55 AM 34.3 °F - 32.9 °F 94% 30.23 in 7.0 mi Calm Calm - N/A   Clear
5:15 AM 32.0 °F 28.7 °F 30.9 °F 96% 30.24 in 7.0 mi West 3.5 mph - N/A   Clear
5:35 AM 31.3 °F - 30.0 °F 95% 30.24 in 5.0 mi Calm Calm - N/A   Clear
5:55 AM 31.6 °F 28.3 °F 30.6 °F 96% 30.25 in 2.0 mi West 3.5 mph - N/A   Clear
6:15 AM 31.5 °F - 30.6 °F 96% 30.26 in 1.8 mi Calm Calm - N/A   Mist
6:35 AM 30.9 °F - 29.8 °F 96% 30.26 in 2.5 mi Calm Calm - N/A   Clear
6:55 AM 31.8 °F - 30.9 °F 96% 30.27 in 2.5 mi Calm Calm - N/A   Clear
7:15 AM 30.7 °F - 29.7 °F 96% 30.28 in 2.0 mi Calm Calm - N/A   Clear
7:35 AM 32.0 °F 28.7 °F 31.3 °F 97% 30.29 in 4.0 mi ESE 3.5 mph - N/A   Clear
7:55 AM 34.7 °F - 33.6 °F 96% 30.29 in 5.0 mi Calm Calm - N/A   Clear
8:15 AM 36.7 °F - 35.6 °F 96% 30.30 in 7.0 mi Calm Calm - N/A   Clear
8:35 AM 38.8 °F - 36.1 °F 90% 30.30 in 10.0 mi Calm Calm - N/A   Clear
8:55 AM 41.0 °F - 37.4 °F 87% 30.30 in 10.0 mi Calm Calm - N/A   Clear
9:15 AM 43.7 °F - 38.7 °F 82% 30.30 in 10.0 mi Calm Calm - N/A   Clear
9:35 AM 45.1 °F - 39.7 °F 81% 30.30 in 10.0 mi Calm Calm - N/A   Clear
9:55 AM 46.9 °F - 38.1 °F 71% 30.31 in 10.0 mi SE 5.8 mph - N/A   Clear
10:15 AM 48.0 °F - 37.8 °F 68% 30.31 in 10.0 mi SE 4.6 mph - N/A   Clear
10:35 AM 49.3 °F - 38.3 °F 66% 30.30 in 10.0 mi SE 4.6 mph - N/A   Scattered Clouds
10:55 AM 48.4 °F - 36.0 °F 62% 30.30 in 10.0 mi SE 5.8 mph - N/A   Scattered Clouds
11:15 AM 50.2 °F - 36.3 °F 59% 30.30 in 10.0 mi SSE 8.1 mph - N/A   Scattered Clouds
11:35 AM 51.1 °F - 35.2 °F 55% 30.29 in 10.0 mi South 5.8 mph - N/A   Mostly Cloudy
11:55 AM 49.1 °F - 35.4 °F 59% 30.29 in 10.0 mi SE 4.6 mph - N/A   Mostly Cloudy
12:15 PM 49.3 °F - 34.7 °F 57% 30.29 in 10.0 mi SSE 5.8 mph - N/A   Overcast
12:35 PM 49.5 °F - 33.8 °F 55% 30.28 in 10.0 mi SSE 6.9 mph - N/A   Mostly Cloudy
12:55 PM 52.0 °F - 32.9 °F 48% 30.27 in 10.0 mi ESE 8.1 mph - N/A   Mostly Cloudy
1:15 PM 52.5 °F - 35.8 °F 53% 30.27 in 10.0 mi South 10.4 mph - N/A   Overcast
1:35 PM 49.5 °F - 34.3 °F 56% 30.27 in 10.0 mi SSE 6.9 mph - N/A   Mostly Cloudy
1:55 PM 49.5 °F - 34.5 °F 56% 30.27 in 10.0 mi SSE 5.8 mph - N/A   Mostly Cloudy
2:15 PM 50.0 °F - 33.6 °F 53% 30.26 in 10.0 mi SE 5.8 mph - N/A   Overcast
2:35 PM 50.4 °F - 32.9 °F 51% 30.26 in 10.0 mi SE 6.9 mph - N/A   Overcast
2:55 PM 52.2 °F - 32.9 °F 48% 30.26 in 10.0 mi SE 6.9 mph - N/A   Overcast
3:15 PM 51.1 °F - 33.1 °F 50% 30.26 in 10.0 mi SSE 9.2 mph - N/A   Scattered Clouds
3:35 PM 50.4 °F - 33.8 °F 53% 30.26 in 10.0 mi SSE 8.1 mph - N/A   Scattered Clouds
3:55 PM 49.6 °F - 33.4 °F 54% 30.25 in 10.0 mi SE 9.2 mph - N/A   Mostly Cloudy
4:15 PM 48.4 °F - 33.8 °F 57% 30.26 in 10.0 mi SE 6.9 mph - N/A   Scattered Clouds
4:35 PM 47.3 °F - 34.2 °F 60% 30.26 in 10.0 mi SE 4.6 mph - N/A   Scattered Clouds
4:55 PM 46.4 °F 44.3 °F 34.0 °F 62% 30.26 in 10.0 mi SE 4.6 mph - N/A   Scattered Clouds
5:15 PM 45.3 °F 42.3 °F 34.0 °F 65% 30.26 in 10.0 mi SE 5.8 mph - N/A   Scattered Clouds
5:35 PM 44.1 °F 40.8 °F 34.2 °F 68% 30.26 in 10.0 mi SE 5.8 mph - N/A   Scattered Clouds
5:55 PM 43.7 °F 40.3 °F 33.8 °F 68% 30.27 in 10.0 mi ESE 5.8 mph - N/A   Scattered Clouds
6:15 PM 42.8 °F 38.6 °F 34.7 °F 73% 30.26 in 10.0 mi ESE 6.9 mph - N/A   Clear
6:35 PM 43.9 °F 39.3 °F 35.2 °F 72% 30.26 in 10.0 mi ESE 8.1 mph - N/A   Clear
6:55 PM 43.7 °F 39.7 °F 35.1 °F 72% 30.27 in 10.0 mi ESE 6.9 mph - N/A   Clear
7:15 PM 43.3 °F 38.6 °F 35.2 °F 73% 30.27 in 10.0 mi SE 8.1 mph - N/A   Clear
7:35 PM 42.8 °F 39.3 °F 35.1 °F 74% 30.27 in 10.0 mi ESE 5.8 mph - N/A   Clear
7:55 PM 42.1 °F 38.4 °F 34.7 °F 75% 30.27 in 10.0 mi SE 5.8 mph - N/A   Clear
8:15 PM 41.9 °F 37.5 °F 34.7 °F 76% 30.27 in 10.0 mi SE 6.9 mph - N/A   Clear
8:35 PM 42.8 °F 38.0 °F 35.1 °F 74% 30.27 in 10.0 mi SE 8.1 mph - N/A   Clear
8:55 PM 43.0 °F 36.8 °F 35.2 °F 74% 30.27 in 10.0 mi SE 11.5 mph 16.1 mph N/A   Clear
9:15 PM 43.0 °F 36.8 °F 35.2 °F 74% 30.28 in 10.0 mi SE 11.5 mph 16.1 mph N/A   Clear
9:35 PM 42.8 °F 37.0 °F 35.2 °F 75% 30.28 in 10.0 mi SE 10.4 mph - N/A   Clear
9:55 PM 42.8 °F 37.0 °F 35.6 °F 76% 30.27 in 10.0 mi SE 10.4 mph - N/A   Clear
10:15 PM 43.2 °F 37.4 °F 35.6 °F 75% 30.28 in 10.0 mi SE 10.4 mph - N/A   Clear
10:35 PM 42.6 °F 37.2 °F 35.6 °F 76% 30.28 in 10.0 mi SE 9.2 mph - N/A   Clear
10:55 PM 42.6 °F 37.2 °F 35.2 °F 75% 30.29 in 10.0 mi SE 9.2 mph - N/A   Clear